GW1774 Weather Reports


time (UTC)temp
C
wind
direction
speed
KPH
gust
KPH
rain 1hr
cm
rain 24hr
cm
rain mn
cm
humidity
%
barometer
mb
20260503054532 5 0.0 0.0 0.00 0.03 0.00 95 1015.9
20260503053529 5 95 0.0 0.0 0.00 0.03 0.00 95 1016.1
20260503052524 5 95 0.0 0.0 0.00 0.03 0.00 95 1016.1
20260503051519 5 94 0.0 0.0 0.00 0.03 0.00 95 1016.1
20260503050556 5 94 0.0 0.0 0.00 0.03 0.00 95 1015.9
20260503045551 5 0.0 0.0 0.00 0.03 0.00 95 1015.8
20260503044547 6 0.0 0.0 0.00 0.03 0.00 95 1015.8
20260503043523 6 0.0 0.0 0.00 0.03 0.00 95 1015.8
20260503042519 6 0.0 0.0 0.00 0.03 0.00 95 1015.8
20260503041554 6 95 0.0 0.0 0.00 0.03 0.00 95 1015.7
20260503040530 6 94 0.0 0.0 0.00 0.03 0.00 95 1015.6
20260503035526 6 0.0 0.0 0.00 0.03 0.03 95 1015.7
20260503034521 6 95 0.0 0.0 0.00 0.03 0.03 95 1015.4
20260503033537 6 95 0.0 0.0 0.00 0.03 0.03 95 1015.4
20260503032532 7 0.0 0.0 0.00 0.03 0.03 95 1015.4
20260503031528 7 95 0.0 0.0 0.00 0.03 0.03 95 1015.3
20260503030523 7 0.0 0.0 0.00 0.03 0.03 95 1015.2
20260503025539 7 95 0.0 0.0 0.00 0.03 0.03 95 1015.1
20260503024554 7 0.0 0.0 0.00 0.03 0.03 94 1015.0
20260503023529 7 0.0 0.0 0.00 0.03 0.03 94 1014.9
20260503022524 7 0.0 0.0 0.00 0.03 0.03 94 1014.9
20260503021519 7 95 0.0 0.0 0.00 0.03 0.03 94 1014.7
20260503020534 7 95 0.0 0.0 0.00 0.03 0.03 94 1014.6
20260503015529 7 101 0.0 0.0 0.00 0.03 0.03 93 1014.5
20260503014524 8 112 0.0 1.6 0.00 0.03 0.03 93 1014.3
20260503013519 8 0.0 0.0 0.00 0.03 0.03 92 1014.3
20260503012535 8 0.0 0.0 0.00 0.03 0.03 92 1014.1
20260503011550 8 0.0 0.0 0.00 0.03 0.03 91 1014.0
20260503010545 9 0.0 0.0 0.00 0.03 0.03 91 1013.9
20260503005520 9 0.0 0.0 0.00 0.03 0.03 90 1013.8
20260503004515 9 0.0 0.0 0.00 0.03 0.03 89 1013.8
20260503003531 10 0.0 0.0 0.00 0.03 0.03 88 1013.6
20260503002546 10 0.0 0.0 0.00 0.03 0.03 87 1013.5
20260503001521 10 0.0 0.0 0.00 0.03 0.03 86 1013.5
20260503000517 11 118 0.0 0.0 0.00 0.03 0.03 84 1013.2
20260502235532 11 0.0 0.0 0.00 0.03 0.03 82 1013.1
20260502234548 11 0.0 0.0 0.00 0.03 0.03 80 1012.9
20260502233524 11 118 0.0 1.6 0.00 0.03 0.03 79 1012.7
20260502232520 12 120 0.0 1.6 0.00 0.03 0.03 78 1012.5
20260502231556 12 121 0.0 0.0 0.00 0.03 0.03 72 1012.4
20260502230531 13 0.0 0.0 0.00 0.03 0.03 70 1012.5
20260502225527 13 0.0 0.0 0.00 0.03 0.03 70 1012.4
20260502224522 13 0.0 0.0 0.00 0.03 0.03 69 1012.4
20260502223518 13 121 0.0 0.0 0.00 0.03 0.03 68 1012.4
20260502222534 13 119 0.0 1.6 0.00 0.03 0.03 67 1012.4
20260502221530 13 0.0 0.0 0.00 0.03 0.03 68 1012.3
20260502220525 13 0.0 0.0 0.00 0.03 0.03 69 1012.2
20260502215520 13 111 0.0 0.0 0.00 0.03 0.03 68 1012.3
20260502214516 13 0.0 0.0 0.00 0.03 0.03 65 1012.2
20260502213532 13 80 0.0 1.6 0.00 0.03 0.03 63 1012.1
20260502212527 13 95 0.0 1.6 0.00 0.03 0.03 64 1012.1
20260502211543 13 71 0.0 1.6 0.00 0.03 0.03 64 1012.1
20260502210539 14 117 0.0 3.2 0.00 0.03 0.03 63 1012.2
20260502205534 14 143 0.0 1.6 0.00 0.03 0.03 62 1012.3
20260502204530 14 208 0.0 1.6 0.00 0.03 0.03 64 1012.1
20260502203525 14 122 0.0 1.6 0.00 0.03 0.03 68 1012.2
20260502202521 15 244 0.0 1.6 0.00 0.03 0.03 63 1012.1
20260502201516 14 280 0.0 1.6 0.00 0.03 0.03 65 1012.0
20260502200532 14 286 0.0 1.6 0.00 0.03 0.03 65 1012.2
20260502195528 15 285 0.0 0.0 0.00 0.03 0.03 66 1012.1
20260502194523 15 286 0.0 1.6 0.00 0.03 0.03 61 1012.3
20260502193519 15 288 1.6 4.8 0.00 0.03 0.03 70 1012.4
20260502192535 15 350 1.6 3.2 0.00 0.03 0.03 69 1012.4
20260502191611 15 334 1.6 3.2 0.00 0.03 0.03 68 1012.5
20260502190526 15 259 1.6 3.2 0.00 0.03 0.03 61 1012.5
20260502185521 15 142 0.0 1.6 0.00 0.03 0.03 64 1012.5
20260502184517 15 14 1.6 4.8 0.00 0.03 0.03 64 1012.6
20260502183533 15 128 1.6 4.8 0.00 0.03 0.03 66 1012.6
20260502182528 15 129 1.6 3.2 0.00 0.03 0.03 66 1012.8
20260502181524 15 254 1.6 1.6 0.00 0.03 0.03 68 1013.0
20260502180519 15 294 0.0 1.6 0.00 0.03 0.03 68 1013.0
20260502163518 14 324 1.6 9.7 0.00 0.03 0.03 74 1013.6
20260502162533 13 259 1.6 3.2 0.00 0.03 0.03 80 1013.9
20260502161529 13 228 1.6 1.6 0.00 0.03 0.03 78 1014.4
20260502160523 13 238 0.0 0.0 0.00 0.03 0.03 82 1014.4
20260502151520 12 224 0.0 1.6 0.00 0.03 0.03 84 1014.0
20260502150535 12 224 0.0 1.6 0.00 0.03 0.03 86 1014.3
20260502130524 11 164 0.0 1.6 0.03 0.03 0.03 85 1013.4
20260502123530 11 142 0.0 0.0 0.03 0.03 0.03 90 1013.6
20260502122526 11 143 0.0 1.6 0.03 0.03 0.03 90 1013.8
20260502121522 11 143 0.0 0.0 0.03 0.03 0.03 91 1013.4
20260502120518 10 143 0.0 0.0 0.00 0.00 0.00 92 1013.2
20260502115534 10 0.0 0.0 0.00 0.00 0.00 92 1013.4
20260502114529 10 0.0 0.0 0.00 0.00 0.00 92 1013.5
20260502113525 10 142 0.0 0.0 0.00 0.00 0.00 92 1013.4
20260502112601 10 142 0.0 0.0 0.00 0.00 0.00 92 1013.3
20260502111516 10 142 0.0 0.0 0.00 0.00 0.00 92 1013.4
20260502110532 10 142 0.0 0.0 0.00 0.00 0.00 92 1013.5
20260502105528 10 142 0.0 0.0 0.00 0.00 0.00 92 1013.5
20260502104523 10 0.0 0.0 0.00 0.00 0.00 92 1013.4
20260502103519 11 142 0.0 0.0 0.00 0.00 0.00 91 1013.5
20260502102615 11 142 0.0 0.0 0.00 0.00 0.00 91 1013.4
20260502101530 10 122 0.0 0.0 0.00 0.00 0.00 92 1013.5
20260502100526 11 122 0.0 0.0 0.00 0.00 0.00 92 1013.6
20260502091523 10 0.0 0.0 0.00 0.00 0.00 92 1013.7
20260502090539 10 0.0 0.0 0.00 0.00 0.00 92 1013.7
20260502071529 10 0.0 0.0 0.00 0.00 0.00 94 1012.5
20260502070524 10 123 0.0 0.0 0.00 0.00 0.00 94 1012.5
20260502065520 10 0.0 0.0 0.00 0.00 0.00 94 1012.4
20260502064516 10 0.0 0.0 0.00 0.00 0.00 94 1012.4
20260502063532 10 0.0 0.0 0.00 0.00 0.00 94 1012.6